• In Uzbekistan
  • List of Countries
  • For 7 days
  • Water Temperature
  • Satellite Maps
  • Weather Map
  • Weather Widgets
  • user-avatar
    Login

    Hourly Weather Tskhaltubo

    Today, 21 January, Sunday

    Time Temperature Precipitation Wind Pressure Humidity
    00:00 +7°C° 0 mm 3 mps 746 mmHg 56%
    01:00 +7°C° 0 mm 3 mps 746 mmHg 56%
    02:00 +7°C° 0 mm 3 mps 746 mmHg 55%
    03:00 +7°C° 0 mm 3 mps 746 mmHg 55%
    04:00 +7°C° 0 mm 3 mps 746 mmHg 55%
    05:00 +7°C° 0 mm 3 mps 745 mmHg 55%
    06:00 +7°C° 0 mm 3 mps 745 mmHg 55%
    07:00 +7°C° 0 mm 3 mps 745 mmHg 54%
    08:00 +8°C° 0 mm 3 mps 745 mmHg 53%
    09:00 +8°C° 0 mm 3 mps 745 mmHg 52%
    10:00 +10°C° 0 mm 2 mps 745 mmHg 50%
    11:00 +13°C° 0 mm 2 mps 745 mmHg 47%
    12:00 +14°C° 0 mm 2 mps 744 mmHg 45%
    13:00 +15°C° 0 mm 2 mps 744 mmHg 46%
    14:00 +15°C° 0 mm 1 mps 745 mmHg 48%
    15:00 +15°C° 0 mm 1 mps 745 mmHg 49%
    16:00 +13°C° 0 mm 1 mps 745 mmHg 52%
    17:00 +12°C° 0 mm 2 mps 746 mmHg 56%
    18:00 +9°C° 0 mm 2 mps 746 mmHg 59%
    19:00 +9°C° 0 mm 2 mps 746 mmHg 59%
    20:00 +8°C° 0 mm 2 mps 746 mmHg 58%
    21:00 +8°C° 0 mm 3 mps 746 mmHg 58%
    22:00 +8°C° 0 mm 3 mps 745 mmHg 56%
    23:00 +8°C° 0 mm 3 mps 745 mmHg 54%

    Tomorrow, 22 January, Monday

    Time Temperature Precipitation Wind Pressure Humidity
    00:00 +8°C° 0 mm 3 mps 745 mmHg 52%
    01:00 +8°C° 0 mm 3 mps 744 mmHg 51%
    02:00 +8°C° 0 mm 3 mps 744 mmHg 50%
    03:00 +8°C° 0 mm 3 mps 743 mmHg 49%
    04:00 +8°C° 0 mm 3 mps 742 mmHg 49%
    05:00 +8°C° 0 mm 3 mps 742 mmHg 49%
    06:00 +8°C° 0 mm 3 mps 741 mmHg 48%
    07:00 +9°C° 0 mm 3 mps 741 mmHg 48%
    08:00 +9°C° 0 mm 3 mps 741 mmHg 47%
    09:00 +10°C° 0 mm 3 mps 741 mmHg 46%
    10:00 +11°C° 0 mm 3 mps 740 mmHg 44%
    11:00 +12°C° 0 mm 3 mps 739 mmHg 42%
    12:00 +14°C° 0 mm 3 mps 739 mmHg 40%
    13:00 +14°C° 0 mm 3 mps 738 mmHg 41%
    14:00 +14°C° 0 mm 3 mps 738 mmHg 41%
    15:00 +14°C° 0 mm 3 mps 738 mmHg 41%
    16:00 +12°C° 0 mm 3 mps 738 mmHg 43%
    17:00 +11°C° 0 mm 3 mps 739 mmHg 46%
    18:00 +9°C° 0 mm 3 mps 739 mmHg 48%
    19:00 +9°C° 0 mm 3 mps 739 mmHg 48%
    20:00 +9°C° 0 mm 3 mps 739 mmHg 48%
    21:00 +9°C° 0 mm 3 mps 739 mmHg 49%
    22:00 +9°C° 0 mm 3 mps 739 mmHg 50%
    23:00 +8°C° 0 mm 3 mps 740 mmHg 51%

    Day after tomorrow, 23 January, Tuesday

    Time Temperature Precipitation Wind Pressure Humidity
    00:00 +8°C° 0 mm 3 mps 740 mmHg 52%
    01:00 +8°C° 0 mm 3 mps 740 mmHg 53%
    02:00 +8°C° 0 mm 3 mps 740 mmHg 54%
    03:00 +7°C° 0 mm 3 mps 740 mmHg 56%
    04:00 +7°C° 0 mm 3 mps 740 mmHg 55%
    05:00 +7°C° 0 mm 3 mps 740 mmHg 55%
    06:00 +7°C° 0 mm 3 mps 739 mmHg 55%
    07:00 +7°C° 0 mm 3 mps 739 mmHg 54%
    08:00 +8°C° 0 mm 3 mps 739 mmHg 53%
    09:00 +8°C° 0 mm 3 mps 739 mmHg 51%
    10:00 +10°C° 0 mm 2 mps 739 mmHg 48%
    11:00 +12°C° 0 mm 2 mps 738 mmHg 46%
    12:00 +14°C° 0 mm 2 mps 738 mmHg 43%
    13:00 +14°C° 0 mm 1 mps 738 mmHg 45%
    14:00 +14°C° 0 mm 1 mps 738 mmHg 47%
    15:00 +14°C° 0 mm 1 mps 738 mmHg 49%
    16:00 +13°C° 0 mm 1 mps 738 mmHg 52%
    17:00 +12°C° 0 mm 2 mps 739 mmHg 56%
    18:00 +9°C° 0 mm 2 mps 739 mmHg 59%
    19:00 +9°C° 0 mm 2 mps 739 mmHg 59%
    20:00 +9°C° 0 mm 2 mps 740 mmHg 60%
    21:00 +9°C° 0 mm 2 mps 740 mmHg 60%
    22:00 +9°C° 0.1 mm 1 mps 741 mmHg 64%
    23:00 +9°C° 0.1 mm 1 mps 741 mmHg 67%

    24 January, Wednesday

    Time Temperature Precipitation Wind Pressure Humidity
    00:00 +9°C° 0.1 mm 1 mps 741 mmHg 71%
    01:00 +9°C° 0.5 mm 1 mps 742 mmHg 75%
    02:00 +8°C° 0.5 mm 1 mps 742 mmHg 79%
    03:00 +8°C° 0.5 mm 1 mps 742 mmHg 84%
    04:00 +8°C° 1.6 mm 1 mps 743 mmHg 86%
    05:00 +7°C° 1.6 mm 1 mps 743 mmHg 89%
    06:00 +6°C° 1.6 mm 2 mps 744 mmHg 92%
    07:00 +7°C° 1.5 mm 1 mps 744 mmHg 92%
    08:00 +7°C° 1.5 mm 1 mps 745 mmHg 93%
    09:00 +7°C° 1.5 mm 1 mps 745 mmHg 93%
    10:00 +6°C° 1.2 mm 2 mps 746 mmHg 92%
    11:00 +6°C° 1.2 mm 2 mps 746 mmHg 92%
    12:00 +5°C° 1.2 mm 3 mps 746 mmHg 92%
    13:00 +5°C° 0.6 mm 3 mps 746 mmHg 92%
    14:00 +6°C° 0.6 mm 2 mps 746 mmHg 92%
    15:00 +6°C° 0.6 mm 2 mps 747 mmHg 93%
    16:00 +6°C° 0.2 mm 2 mps 747 mmHg 93%
    17:00 +6°C° 0.2 mm 2 mps 748 mmHg 94%
    18:00 +6°C° 0.2 mm 1 mps 749 mmHg 95%
    19:00 +6°C° 0.1 mm 1 mps 749 mmHg 95%
    20:00 +6°C° 0.1 mm 1 mps 749 mmHg 94%
    21:00 +5°C° 0.1 mm 1 mps 750 mmHg 94%
    22:00 +5°C° 0.1 mm 1 mps 750 mmHg 93%
    23:00 +4°C° 0.1 mm 0 mps 750 mmHg 92%

    25 January, Thursday

    Time Temperature Precipitation Wind Pressure Humidity
    00:00 +4°C° 0.1 mm 0 mps 750 mmHg 92%
    01:00 +4°C° 0 mm 0 mps 750 mmHg 90%
    02:00 +5°C° 0 mm 1 mps 750 mmHg 88%
    03:00 +4°C° 0 mm 1 mps 750 mmHg 86%
    04:00 +4°C° 0 mm 1 mps 750 mmHg 82%
    05:00 +4°C° 0 mm 1 mps 750 mmHg 78%
    06:00 +3°C° 0 mm 2 mps 750 mmHg 75%
    07:00 +4°C° 0 mm 2 mps 749 mmHg 72%
    08:00 +5°C° 0 mm 2 mps 749 mmHg 69%
    09:00 +6°C° 0 mm 2 mps 749 mmHg 66%
    10:00 +7°C° 0 mm 2 mps 749 mmHg 65%
    11:00 +8°C° 0 mm 2 mps 748 mmHg 64%
    12:00 +10°C° 0 mm 2 mps 748 mmHg 63%
    13:00 +10°C° 0 mm 2 mps 747 mmHg 64%
    14:00 +10°C° 0 mm 2 mps 747 mmHg 65%
    15:00 +10°C° 0 mm 2 mps 747 mmHg 66%
    16:00 +9°C° 0 mm 2 mps 747 mmHg 67%
    17:00 +9°C° 0 mm 2 mps 747 mmHg 68%
    18:00 +8°C° 0 mm 2 mps 747 mmHg 69%
    19:00 +7°C° 0 mm 2 mps 747 mmHg 68%
    20:00 +7°C° 0 mm 2 mps 747 mmHg 67%
    21:00 +7°C° 0 mm 3 mps 747 mmHg 66%
    22:00 +7°C° 0 mm 3 mps 747 mmHg 65%
    23:00 +7°C° 0 mm 3 mps 747 mmHg 64%

    26 January, Friday

    Time Temperature Precipitation Wind Pressure Humidity
    00:00 +5°C° 0 mm 3 mps 747 mmHg 63%
    01:00 +5°C° 0 mm 3 mps 747 mmHg 64%
    02:00 +5°C° 0 mm 3 mps 747 mmHg 64%
    03:00 +5°C° 0 mm 3 mps 746 mmHg 65%
    04:00 +5°C° 0 mm 3 mps 746 mmHg 65%
    05:00 +5°C° 0 mm 3 mps 746 mmHg 65%
    06:00 +5°C° 0 mm 3 mps 746 mmHg 65%
    07:00 +5°C° 0 mm 3 mps 745 mmHg 65%
    08:00 +7°C° 0 mm 3 mps 745 mmHg 64%
    09:00 +7°C° 0 mm 3 mps 745 mmHg 63%
    10:00 +9°C° 0 mm 3 mps 744 mmHg 61%
    11:00 +10°C° 0 mm 3 mps 744 mmHg 60%
    12:00 +11°C° 0 mm 3 mps 743 mmHg 58%
    13:00 +11°C° 0 mm 3 mps 743 mmHg 59%
    14:00 +12°C° 0 mm 2 mps 743 mmHg 59%
    15:00 +12°C° 0 mm 2 mps 742 mmHg 60%
    16:00 +10°C° 0 mm 2 mps 742 mmHg 65%
    17:00 +9°C° 0 mm 1 mps 743 mmHg 70%
    18:00 +8°C° 0 mm 1 mps 743 mmHg 75%
    19:00 +7°C° 0 mm 1 mps 743 mmHg 76%
    20:00 +7°C° 0 mm 1 mps 744 mmHg 78%
    21:00 +7°C° 0 mm 1 mps 744 mmHg 80%
    22:00 +6°C° 0 mm 1 mps 744 mmHg 80%
    23:00 +6°C° 0 mm 1 mps 744 mmHg 80%
    Show more